Location: Unspecified
(44.4377°N, 88.0525°W)
Time: 19:17:03
(UTC-05:00)

CZ-3 Stage 3 - Visible Passes

Search period start: 28 August 2015 00:00
Search period end: 07 September 2015 00:00
Orbit: 439 x 34786 km, 31.0° (Epoch: 25 August)

Date Brightness Start Highest point End Pass type
(mag) Time Alt. Az. Time Alt. Az. Time Alt. Az.
28 Aug 6.6 03:30:57 27° WSW 04:03:45 70° S 12:28:21 10° SSW visible
29 Aug 6.5 00:03:49 37° SE 00:05:20 38° SE 08:43:20 10° SE visible
31 Aug 6.6 03:26:00 28° WSW 03:58:51 70° S 12:21:01 10° SSW visible
31 Aug 6.5 23:58:52 39° SE 23:59:36 39° SE 08:37:30 10° SE visible
03 Sep 6.7 03:21:05 30° WSW 03:54:00 70° S 12:13:30 10° SSW visible
03 Sep 6.5 23:53:59 41° SE 23:53:59 41° SE 08:31:38 10° SE visible
06 Sep 6.7 03:16:15 31° WSW 03:49:13 70° S 12:05:47 10° SSW visible
